1396310431498,1.13397
1396310491498,1.13660
1396310551498,1.13616
1396310611498,1.13612
1396310671498,1.13744
1396310731498,1.14030
1396310791498,1.13926
1396310851498,1.13638
1396310911498,1.13488
1396310971498,1.12983
1396311031498,1.13086
1396311091498,1.13723
1396311151498,1.13372
1396311211498,1.13366
1396311271498,1.12416
1396311331498,1.13226
1396311391498,1.12689
1396311451498,1.13942
1396311511498,1.12992
1396311571498,1.13433
1396311631498,1.13819
1396311691498,1.13400
1396311751498,1.12979
1396311811498,1.12892
1396311871498,1.13251
1396311931498,1.12434
1396311991498,1.12235
1396312051498,1.13092
1396312111498,1.12929
1396312171498,1.13284
1396312231498,1.13020
1396312291498,1.13479
1396312351498,1.14007
1396312411498,1.12548
1396312471498,1.13410
1396312531498,1.14175
1396312591498,1.13562
1396312651498,1.13016
1396312711498,1.12458
1396312771498,1.13525
1396312831498,1.14540
1396312891498,1.12680
1396312951498,1.12957
1396313011498,1.13602
1396313071498,1.13131
1396313131498,1.13515
1396313191498,1.14341
1396313251498,1.16515
1396313311498,1.18630
1396313371498,1.20730
1396313431498,1.23217
1396313491498,1.24618
1396313551498,1.25081
1396313611498,1.24885
1396313671498,1.24982
1396313731498,1.23992
1396313791498,1.23351
1396313851498,1.22321
1396313911498,1.21587
1396313971498,1.19565
1396314031509,1.19120
1396314091509,1.18027
1396314151509,1.18697
1396314211510,1.18399
1396314271510,1.17258
1396314331509,1.17342
1396314391509,1.16307
1396314451509,1.17027
1396314511509,1.15777
1396314571510,1.15145
1396314631510,1.15164
1396314691510,1.14454
1396314751510,1.15248
1396314811510,1.14528
1396314871510,1.14913
1396314931510,1.14655
1396314991509,1.14340
1396315051509,1.13361
1396315111509,1.13586
1396315171509,1.13190
1396315231509,1.13425
1396315291509,1.13263
1396315351509,1.13252
1396315411509,1.13662
1396315471509,1.13667
1396315531510,1.14078
1396315591510,1.13616
1396315651509,1.13561
1396315711509,1.13841
1396315771509,1.12930
1396315831509,1.12338
1396315891510,1.14141
1396315951510,1.12818
1396316011510,1.12650
1396316071510,1.12564
1396316131510,1.13075
1396316191510,1.11998
1396316251510,1.13870
1396316311509,1.12930
1396316371509,1.13058
1396316431509,1.13512
1396316491509,1.12421
1396316551509,1.12985
1396316611509,1.13803
1396316671509,1.13025
1396316731509,1.12599
1396316791509,1.12608
1396316851509,1.13074
1396316911510,1.12631
1396316971510,1.13742
1396317031509,1.12947
1396317091509,1.13252
1396317151509,1.13288
1396317211509,1.12396
1396317271510,1.12491
1396317331510,1.13329
1396317391510,1.11976
1396317451510,1.13076
1396317511510,1.13578
1396317571510,1.11921
1396317631521,1.12713
1396317691521,1.12540
1396317751521,1.13497
1396317811521,1.12794
1396317871521,1.13452
1396317931521,1.12751
1396317991521,1.12769
1396318051521,1.12140
1396318111520,1.12687
1396318171520,1.12717
1396318231520,1.12720
1396318291521,1.13115
1396318351521,1.12732
1396318411521,1.12373
1396318471521,1.12935
1396318531521,1.13018
1396318591521,1.12540
1396318651521,1.12200
1396318711521,1.12205
1396318771521,1.12526
1396318831521,1.13345
1396318891521,1.12354
1396318951521,1.12931
1396319011521,1.13366
1396319071521,1.12603
1396319131521,1.12068
1396319191521,1.12627
1396319251521,1.12946
1396319311521,1.13796
1396319371521,1.13325
1396319431520,1.13470
1396319491520,1.13221
1396319551520,1.12586
1396319611521,1.12719
1396319671521,1.12781
1396319731521,1.13219
1396319791521,1.13812
1396319851521,1.13624
1396319911521,1.14463
1396319971521,1.13745
1396320031521,1.14135
1396320091521,1.13664
1396320151521,1.14136
1396320211521,1.13033
1396320271521,1.13737
1396320331521,1.13729
1396320391521,1.13069
1396320451521,1.13349
1396320511521,1.13262
1396320571521,1.13677
1396320631521,1.13189
1396320691521,1.13823
1396320751521,1.12602
1396320811520,1.13559
1396320871520,1.13004
1396320931520,1.13704
1396320991521,1.13022
1396321051521,1.12942
1396321111521,1.13658
1396321171521,1.13474
1396321231531,1.13345
1396321291531,1.13040
1396321351531,1.12587
1396321411531,1.12411
1396321471531,1.13741
1396321531531,1.13101
1396321591531,1.13236
1396321651531,1.13978
1396321711531,1.12724
1396321771531,1.13029
1396321831531,1.12584
1396321891531,1.13186
1396321951531,1.13667
1396322011531,1.13116
1396322071531,1.14230
1396322131531,1.13271
1396322191531,1.13776
1396322251531,1.12722
1396322311531,1.12858
1396322371531,1.12769
1396322431531,1.13414
1396322491531,1.13083
1396322551531,1.13262
1396322611531,1.12975
1396322671531,1.13824
1396322731531,1.13758
1396322791531,1.12787
1396322851531,1.13490
1396322911531,1.13377
1396322971531,1.13156
1396323031531,1.12361
1396323091531,1.13694
1396323151531,1.12285
1396323211531,1.13594
1396323271531,1.13171
1396323331531,1.12694
1396323391531,1.12750
1396323451531,1.12543
1396323511531,1.13007
1396323571531,1.11649
1396323631531,1.12637
1396323691531,1.12980
1396323751531,1.12322
1396323811531,1.12803
1396323871531,1.13284
1396323931531,1.12195
1396323991531,1.12566
1396324051531,1.11889
1396324111531,1.12945
1396324171531,1.12465
1396324231531,1.12122
1396324291531,1.12483
1396324351531,1.12117
1396324411531,1.12164
1396324471531,1.12655
1396324531531,1.13038
1396324591531,1.12823
1396324651531,1.12720
1396324711531,1.12266
1396324771531,1.12622
1396324831542,1.12259
1396324891542,1.12646
1396324951542,1.13562
1396325011542,1.12356
1396325071542,1.11427
1396325131542,1.12703
1396325191542,1.12129
1396325251542,1.12259
1396325311542,1.12117
1396325371542,1.13404
1396325431542,1.13108
1396325491542,1.12552
1396325551542,1.12589
1396325611542,1.12767
1396325671542,1.13071
1396325731542,1.11915
1396325791542,1.12799
1396325851542,1.12504
1396325911542,1.13285
1396325971542,1.12924
1396326031542,1.12850
1396326091542,1.12676
1396326151542,1.12675
1396326211542,1.12329
1396326271542,1.12638
1396326331542,1.13088
1396326391542,1.13098
1396326451542,1.12982
1396326511542,1.13135
1396326571542,1.12622
1396326631542,1.12740
1396326691542,1.12155
1396326751542,1.13230
1396326811542,1.12379
1396326871542,1.12185
1396326931542,1.12666
1396326991542,1.12240
1396327051542,1.12016
1396327111542,1.12431
1396327171542,1.12790
1396327231542,1.12292
1396327291542,1.12257
1396327351542,1.12514
1396327411542,1.13155
1396327471542,1.12942
1396327531542,1.12441
1396327591542,1.12242
1396327651542,1.12326
1396327711542,1.14178
1396327771542,1.13212
1396327831542,1.13206
1396327891542,1.13491
1396327951542,1.12945
1396328011542,1.13251
1396328071542,1.13729
1396328131542,1.13197
1396328191542,1.12556
1396328251542,1.12653
1396328311542,1.12442
1396328371542,1.12553
1396328431553,1.12407
1396328491553,1.12630
1396328551553,1.12430
1396328611553,1.12162
1396328671553,1.13130
1396328731553,1.13469
1396328791553,1.13338
1396328851553,1.12369
1396328911553,1.12068
1396328971553,1.12893
1396329031553,1.12689
1396329091553,1.12575
1396329151553,1.12619
1396329211553,1.12985
1396329271553,1.12624
1396329331553,1.12386
1396329391553,1.12633
1396329451553,1.12032
1396329511553,1.11692
1396329571553,1.13395
1396329631553,1.11420
1396329691553,1.12067
1396329751553,1.12341
1396329811553,1.11122
1396329871553,1.11001
1396329931553,1.11930
1396329991553,1.11803
1396330051553,1.11547
1396330111553,1.12383
1396330171553,1.11761
1396330231553,1.12347
1396330291553,1.11966
1396330351553,1.12551
1396330411553,1.12224
1396330471553,1.11988
1396330531553,1.11868
1396330591553,1.11956
1396330651553,1.11183
1396330711553,1.12018
1396330771553,1.12573
1396330831553,1.12151
1396330891553,1.11614
1396330951553,1.12194
1396331011553,1.12017
1396331071553,1.12930
1396331131553,1.11107
1396331191553,1.12785
1396331251553,1.11975
1396331311553,1.11830
1396331371553,1.12675
1396331431553,1.11781
1396331491553,1.12175
1396331551553,1.12626
1396331611553,1.12738
1396331671553,1.12675
1396331731553,1.12534
1396331791553,1.12316
1396331851553,1.12102
1396331911553,1.12236
1396331971553,1.12326
1396332031563,1.12698
1396332091563,1.12139
1396332151563,1.13185
1396332211563,1.12587
1396332271563,1.12193
1396332331563,1.12683
1396332391563,1.11494
1396332451563,1.11763
1396332511563,1.12243
1396332571563,1.12318
1396332631563,1.12407
1396332691563,1.12560
1396332751563,1.12364
1396332811563,1.13352
1396332871563,1.12478
1396332931563,1.12166
1396332991563,1.12223
1396333051563,1.11467
1396333111563,1.12893
1396333171563,1.12548
1396333231563,1.12461
1396333291563,1.13183
1396333351563,1.11677
1396333411563,1.12862
1396333471563,1.11529
1396333531563,1.11645
1396333591563,1.12314
1396333651563,1.11851
1396333711563,1.12088
1396333771563,1.12072
1396333831563,1.12104
1396333891563,1.11733
1396333951563,1.11742
1396334011563,1.12421
1396334071563,1.12278
1396334131563,1.11866
1396334191563,1.12936
1396334251563,1.11538
1396334311563,1.12294
1396334371563,1.12476
1396334431563,1.12257
1396334491563,1.11756
1396334551563,1.11951
1396334611563,1.12710
1396334671563,1.12845
1396334731563,1.13320
1396334791563,1.11971
1396334851563,1.12823
1396334911563,1.11372
1396334971563,1.12495
1396335031563,1.11520
1396335091563,1.11836
1396335151563,1.11766
1396335211563,1.12644
1396335271563,1.11139
1396335331563,1.12341
1396335391563,1.11789
1396335451563,1.11794
1396335511563,1.12786
1396335571563,1.12767
1396335631574,1.13057
1396335691574,1.13789
1396335751574,1.13101
1396335811574,1.12548
1396335871574,1.12436
1396335931574,1.12509
1396335991574,1.14010
1396336051574,1.13281
1396336111574,1.12970
1396336171574,1.12454
1396336231574,1.13242
1396336291574,1.12962
1396336351574,1.12959
1396336411574,1.12764
1396336471574,1.12100
1396336531574,1.12667
1396336591574,1.13359
1396336651574,1.12717
1396336711574,1.12994
1396336771574,1.12405
1396336831574,1.12058
1396336891574,1.13224
1396336951574,1.12089
1396337011574,1.12214
1396337071574,1.11600
1396337131574,1.12349
1396337191574,1.12901
1396337251574,1.13364
1396337311574,1.12796
1396337371574,1.13027
1396337431574,1.12471
1396337491574,1.12695
1396337551574,1.12330
1396337611574,1.11698
1396337671574,1.12764
1396337731574,1.12113
1396337791574,1.12497
1396337851574,1.12384
1396337911574,1.12681
1396337971574,1.13313
1396338031574,1.11852
1396338091574,1.11883
1396338151574,1.13118
1396338211574,1.12941
1396338271574,1.14092
1396338331574,1.14228
1396338391574,1.14031
1396338451574,1.14460
1396338511574,1.14977
1396338571574,1.14205
1396338631574,1.14268
1396338691574,1.13495
1396338751574,1.14176
1396338811574,1.14102
1396338871574,1.14918
1396338931574,1.14373
1396338991574,1.14077
1396339051574,1.13321
1396339111574,1.13428
1396339171574,1.14050
1396339231585,1.13890
1396339291585,1.13950
1396339351585,1.14102
1396339411585,1.13639
1396339471585,1.14242
1396339531585,1.12472
1396339591585,1.13775
1396339651585,1.13887
1396339711585,1.12935
1396339771585,1.14206
1396339831585,1.14270
1396339891585,1.14058
1396339951585,1.13787
1396340011585,1.13703
1396340071585,1.13637
1396340131585,1.14326
1396340191585,1.14121
1396340251585,1.14525
1396340311585,1.14092
1396340371585,1.13740
1396340431585,1.13822
1396340491585,1.15206
1396340551585,1.12756
1396340611585,1.13656
1396340671585,1.13105
1396340731585,1.13441
1396340791585,1.13495
1396340851585,1.12975
1396340911585,1.13324
1396340971585,1.12723
1396341031585,1.13358
1396341091585,1.13858
1396341151585,1.12648
1396341211585,1.12311
1396341271585,1.13364
1396341331585,1.13352
1396341391585,1.13169
1396341451585,1.12697
1396341511585,1.12538
1396341571585,1.12861
1396341631585,1.13262
1396341691585,1.12977
1396341751585,1.13715
1396341811585,1.12214
1396341871585,1.12742
1396341931585,1.13352
1396341991585,1.13362
1396342051585,1.13012
1396342111585,1.12249
1396342171585,1.13044
1396342231585,1.12541
1396342291585,1.12632
1396342351585,1.11940
1396342411585,1.13063
1396342471585,1.12231
1396342531585,1.11919
1396342591585,1.12094
1396342651585,1.12362
1396342711585,1.12610
1396342771585,1.12743
1396342831595,1.12321
1396342891595,1.11731
1396342951595,1.12323
1396343011595,1.11726
1396343071595,1.12620
1396343131595,1.12183
1396343191595,1.12916
1396343251595,1.12526
1396343311595,1.12914
1396343371595,1.12431
1396343431595,1.12660
1396343491595,1.12304
1396343551595,1.13195
1396343611595,1.12393
1396343671595,1.13721
1396343731595,1.12798
1396343791595,1.12376
1396343851595,1.12783
1396343911595,1.13074
1396343971595,1.13656
1396344031595,1.13171
1396344091595,1.13433
1396344151595,1.13835
1396344211595,1.13319
1396344271595,1.13722
1396344331595,1.12871
1396344391595,1.13317
1396344451595,1.13089
1396344511595,1.12957
1396344571595,1.12229
1396344631595,1.13380
1396344691595,1.12722
1396344751595,1.12887
1396344811595,1.13192
1396344871595,1.13459
1396344931595,1.12316
1396344991595,1.12685
1396345051595,1.13444
1396345111595,1.12918
1396345171595,1.12616
1396345231595,1.12858
1396345291595,1.12795
1396345351595,1.13048
1396345411595,1.13189
1396345471595,1.13073
1396345531595,1.12861
1396345591595,1.12529
1396345651595,1.12831
1396345711595,1.12164
1396345771595,1.12185
1396345831595,1.12669
1396345891595,1.12100
1396345951595,1.12603
1396346011595,1.12614
1396346071595,1.12209
1396346131595,1.11884
1396346191595,1.12401
1396346251595,1.12508
1396346311595,1.12019
1396346371595,1.11632
1396346431606,1.12870
1396346491606,1.12513
1396346551606,1.12629
1396346611606,1.12624
1396346671606,1.13508
1396346731606,1.12975
1396346791606,1.12854
1396346851606,1.12588
1396346911606,1.12414
1396346971606,1.12587
1396347031606,1.13276
1396347091606,1.13453
1396347151606,1.12982
1396347211606,1.13149
1396347271606,1.11687
1396347331606,1.12356
1396347391606,1.13059
1396347451606,1.13309
1396347511606,1.13329
1396347571606,1.13283
1396347631606,1.13676
1396347691606,1.13689
1396347751606,1.13273
1396347811606,1.13715
1396347871606,1.13198
1396347931606,1.13351
1396347991606,1.14182
1396348051606,1.13958
1396348111606,1.13463
1396348171606,1.12737
1396348231606,1.13653
1396348291606,1.13406
1396348351606,1.13042
1396348411606,1.13133
1396348471606,1.13313
1396348531606,1.13142
1396348591606,1.13916
1396348651606,1.12972
1396348711606,1.14182
1396348771606,1.14029
1396348831606,1.13925
1396348891606,1.13863
1396348951606,1.13717
1396349011606,1.14033
1396349071606,1.13406
1396349131606,1.13678
1396349191606,1.13456
1396349251606,1.13496
1396349311606,1.14460
1396349371606,1.14006
1396349431606,1.13718
1396349491606,1.14075
1396349551606,1.14180
1396349611606,1.13635
1396349671606,1.14097
1396349731606,1.13414
1396349791606,1.13030
1396349851606,1.14120
1396349911606,1.13028
1396349971606,1.12417
1396350031616,1.13464
1396350091616,1.13606
1396350151616,1.14256
1396350211616,1.13160
1396350271616,1.13352
1396350331616,1.13291
1396350391616,1.13532
1396350451616,1.13661
1396350511616,1.12929
1396350571616,1.13292
1396350631616,1.12843
1396350691616,1.12688
1396350751616,1.13128
1396350811616,1.11616
1396350871616,1.13545
1396350931616,1.12405
1396350991616,1.13246
1396351051616,1.13130
1396351111616,1.12548
1396351171616,1.13481
1396351231616,1.12750
1396351291616,1.12501
1396351351616,1.13508
1396351411616,1.12940
1396351471616,1.12842
1396351531616,1.12736
1396351591616,1.12789
1396351651616,1.13240
1396351711616,1.13624
1396351771616,1.13284
1396351831616,1.11823
1396351891616,1.12829
1396351951616,1.13587
1396352011616,1.12884
1396352071616,1.12547
1396352131616,1.12708
1396352191616,1.13619
1396352251616,1.13451
1396352311616,1.14468
1396352371616,1.13758
1396352431616,1.13212
1396352491616,1.13251
1396352551616,1.13592
1396352611616,1.14256
1396352671616,1.14017
1396352731616,1.14409
1396352791616,1.14623
1396352851616,1.14515
1396352911616,1.15042
1396352971616,1.14583
1396353031616,1.15111
1396353091616,1.15062
1396353151616,1.13923
1396353211616,1.15697
1396353271616,1.15640
1396353331616,1.17029
1396353391616,1.17306
1396353451616,1.16376
1396353511616,1.18163
1396353571616,1.18277
1396353631627,1.17957
1396353691627,1.17077
1396353751627,1.16676
1396353811627,1.16873
1396353871627,1.16910
1396353931627,1.17150
1396353991627,1.17774
1396354051627,1.16804
1396354111626,1.17125
1396354171626,1.17518
1396354231626,1.16233
1396354291626,1.16162
1396354351626,1.16813
1396354411626,1.16743
1396354471627,1.17125
1396354531627,1.16410
1396354591627,1.16583
1396354651627,1.17250
1396354711627,1.16370
1396354771626,1.15626
1396354831627,1.15032
1396354891627,1.15667
1396354951627,1.17268
1396355011627,1.15739
1396355071627,1.15263
1396355131627,1.15903
1396355191627,1.16154
1396355251627,1.15207
1396355311627,1.15166
1396355371627,1.15338
1396355431626,1.14544
1396355491626,1.14607
1396355551626,1.14344
1396355611626,1.14089
1396355671626,1.15493
1396355731626,1.13578
1396355791627,1.14313
1396355851627,1.14187
1396355911627,1.13405
1396355971627,1.13334
1396356031627,1.13921
1396356091627,1.13144
1396356151627,1.13650
1396356211627,1.13891
1396356271627,1.14083
1396356331627,1.14071
1396356391627,1.13946
1396356451627,1.13493
1396356511627,1.14626
1396356571627,1.14032
1396356631627,1.14138
1396356691627,1.13534
1396356751627,1.14166
1396356811626,1.14555
1396356871626,1.14986
1396356931626,1.13817
1396356991626,1.15079
1396357051626,1.14122
1396357111626,1.13906
1396357171627,1.13078
1396357231637,1.13603
1396357291637,1.13119
1396357351637,1.13485
1396357411637,1.13388
1396357471637,1.13716
1396357531637,1.14073
1396357591637,1.13956
1396357651637,1.13368
1396357711637,1.12828
1396357771637,1.13032
1396357831637,1.13256
1396357891637,1.13115
1396357951637,1.13229
1396358011637,1.13219
1396358071637,1.13305
1396358131637,1.13324
1396358191637,1.14135
1396358251637,1.13748
1396358311637,1.13592
1396358371637,1.13463
1396358431637,1.13456
1396358491637,1.13522
1396358551637,1.13980
1396358611637,1.12693
1396358671637,1.13498
1396358731637,1.13342
1396358791637,1.13745
1396358851637,1.13673
1396358911637,1.13634
1396358971637,1.13499
1396359031637,1.13565
1396359091637,1.13322
1396359151637,1.13856
1396359211637,1.15175
1396359271637,1.14895
1396359331637,1.14348
1396359391637,1.14712
1396359451637,1.14440
1396359511637,1.14457
1396359571637,1.14818
1396359631637,1.14244
1396359691637,1.15063
1396359751637,1.15714
1396359811637,1.14366
1396359871637,1.15843
1396359931637,1.14435
1396359991637,1.14721
1396360051637,1.14156
1396360111637,1.15139
1396360171637,1.15483
1396360231637,1.14757
1396360291637,1.15439
1396360351637,1.14406
1396360411637,1.15346
1396360471637,1.14351
1396360531637,1.14646
1396360591637,1.13935
1396360651637,1.15897
1396360711637,1.15797
1396360771637,1.14915
1396360831647,1.14443
1396360891647,1.15642
1396360951647,1.15988
1396361011647,1.15465
1396361071647,1.14586
1396361131647,1.14925
1396361191647,1.16173
1396361251647,1.14835
1396361311647,1.14682
1396361371647,1.13560
1396361431647,1.14330
1396361491647,1.13937
1396361551647,1.14606
1396361611647,1.14834
1396361671647,1.14015
1396361731647,1.13906
1396361791647,1.13818
1396361851647,1.14023
1396361911647,1.13330
1396361971647,1.14085
1396362031647,1.13063
1396362091647,1.13697
1396362151647,1.12626
1396362211647,1.12974
1396362271647,1.13961
1396362331647,1.12968
1396362391647,1.12149
1396362451647,1.12899
1396362511647,1.11960
1396362571647,1.12736
1396362631647,1.11610
1396362691647,1.11769
1396362751647,1.12353
1396362811647,1.12451
1396362871647,1.12445
1396362931647,1.12587
1396362991647,1.12301
1396363051647,1.12850
1396363111647,1.12758
1396363171647,1.12433
1396363231647,1.13338
1396363291647,1.11788
1396363351647,1.12977
1396363411647,1.12249
1396363471647,1.12074
1396363531647,1.12402
1396363591647,1.12360
1396363651647,1.11210
1396363711647,1.11996
1396363771647,1.11889
1396363831647,1.12758
1396363891647,1.12444
1396363951647,1.11819
1396364011647,1.12811
1396364071647,1.12309
1396364131647,1.11725
1396364191647,1.12848
1396364251647,1.11753
1396364311647,1.12673
1396364371647,1.13176
1396364431657,1.11808
1396364491657,1.12370
1396364551657,1.11217
1396364611657,1.11634
1396364671657,1.13373
1396364731657,1.12740
1396364791657,1.13104
1396364851657,1.12559
1396364911657,1.13200
1396364971657,1.12864
1396365031657,1.12788
1396365091657,1.13759
1396365151657,1.12790
1396365211657,1.13786
1396365271657,1.13878
1396365331657,1.14257
1396365391657,1.13416
1396365451657,1.13392
1396365511657,1.12990
1396365571657,1.12789
1396365631657,1.13210
1396365691657,1.12075
1396365751657,1.12354
1396365811657,1.12211
1396365871657,1.12910
1396365931657,1.10914
1396365991657,1.12292
1396366051657,1.11929
1396366111657,1.11543
1396366171657,1.11252
1396366231657,1.12273
1396366291657,1.11850
1396366351657,1.12556
1396366411657,1.13233
1396366471657,1.12899
1396366531657,1.12182
1396366591657,1.12463
1396366651657,1.12627
1396366711657,1.12298
1396366771657,1.12116
1396366831657,1.11813
1396366891657,1.12579
1396366951657,1.11744
1396367011657,1.11327
1396367071657,1.11668
1396367131657,1.11594
1396367191657,1.11356
1396367251657,1.11364
1396367311657,1.11984
1396367371657,1.11813
1396367431657,1.11627
1396367491657,1.12344
1396367551657,1.12226
1396367611657,1.12337
1396367671657,1.11711
1396367731657,1.11676
1396367791657,1.11764
1396367851657,1.11739
1396367911657,1.10877
1396367971657,1.11023
1396368031667,1.11153
1396368091667,1.12087
1396368151667,1.12005
1396368211667,1.11529
1396368271667,1.10782
1396368331667,1.10434
1396368391667,1.10708
1396368451667,1.11420
1396368511667,1.11269
1396368571667,1.12862
1396368631667,1.12539
1396368691667,1.12453
1396368751667,1.11390
1396368811667,1.11737
1396368871667,1.11907
1396368931667,1.12592
1396368991667,1.12108
1396369051667,1.11600
1396369111667,1.12395
1396369171667,1.11725
1396369231667,1.11980
1396369291667,1.12802
1396369351667,1.11848
1396369411667,1.11205
1396369471667,1.11912
1396369531667,1.11580
1396369591667,1.11338
1396369651667,1.11788
1396369711667,1.11472
1396369771667,1.11249
1396369831667,1.11391
1396369891667,1.11688
1396369951667,1.11663
1396370011667,1.11366
1396370071667,1.11264
1396370131667,1.11713
1396370191667,1.11575
1396370251667,1.12668
1396370311667,1.11486
1396370371667,1.10876
1396370431667,1.11890
1396370491667,1.13042
1396370551667,1.12193
1396370611667,1.12183
1396370671667,1.13164
1396370731667,1.12884
1396370791667,1.13534
1396370851667,1.12828
1396370911667,1.12779
1396370971667,1.13360
1396371031667,1.12510
1396371091667,1.12612
1396371151667,1.12017
1396371211667,1.12372
1396371271667,1.11720
1396371331667,1.12886
1396371391667,1.12349
1396371451667,1.12311
1396371511667,1.13497
1396371571667,1.12420
1396371631677,1.11945
1396371691677,1.13300
1396371751677,1.11590
1396371811677,1.12959
1396371871677,1.13153
1396371931677,1.12709
1396371991677,1.12813
1396372051677,1.13078
1396372111677,1.12477
1396372171677,1.12675
1396372231677,1.12347
1396372291677,1.12283
1396372831677,1.11936
1396372891677,1.11026
1396372951677,1.10352
1396373011677,1.11744
1396373071677,1.11461
1396373131677,1.10945
1396373191677,1.10728
1396373251677,1.11093
1396373311677,1.10466
1396373371677,1.10565
1396373431677,1.11453
1396373491677,1.11174
1396373551677,1.11705
1396373611677,1.11283
1396373671677,1.12045
1396373731677,1.11837
1396373791677,1.11551
1396373851677,1.11281
1396373911677,1.12067
1396373971677,1.12704
1396374031677,1.12626
1396374091677,1.12199
1396374151677,1.12033
1396374211677,1.12135
1396374271677,1.12947
1396374331677,1.12140
1396374391677,1.12243
1396374451677,1.13059
1396374511677,1.12148
1396374571677,1.12415
1396374631677,1.13083
1396374691677,1.13161
1396374751677,1.12931
1396374811677,1.12571
1396374871677,1.12342
1396374931677,1.12991
1396374991677,1.12039
1396375051677,1.12559
1396375111677,1.12513
1396375171677,1.10896
1396375231687,1.12170
1396375291687,1.11172
1396375351688,1.11652
1396375411688,1.10867
1396375471688,1.11521
1396375531688,1.11372
1396375591687,1.11276
1396375651687,1.12170
1396375711687,1.11750
1396375771687,1.10467
1396375831687,1.10999
1396375891687,1.10704
1396375951687,1.10723
1396376011687,1.10838
1396376071687,1.10605
1396376131687,1.10681
1396376191687,1.10952
1396376251687,1.11351